Flag for Russia Weather past 2 weeks in Saint-Petersburg, Russia

Now
36 °F

Sprinkles. Mostly cloudy.


Feels Like: 28 °F
Forecast: 29 / 35 °F
Wind: 10 mph from Southwest

Location: St. Petersburg

Current Time: Dec 20, 2014 at 5:35:19 PM

Latest Report: Dec 20, 2014 at 5:00 PM


Visibility: N/A

Pressure: 29.12 "Hg

Humidity: 87%

Dew point: 32 °F

Location of Saint-PetersburgLocation

Historic Weather in Saint-Petersburg — Graph

°F

Saint-Petersburg temperature yesterday

Maximum temperature yesterday: 37 °F (at 10:00 PM)
Minimum temperature yesterday: 32 °F (at 12:00 AM)
Average temperature yesterday: 34 °F

Past Weeks' High & Low Weather Summary

 TemperatureHumidityPressure
High37 °F (Dec 9, 2:30 PM)100% (Dec 5, 4:30 PM)30.30 "Hg (Dec 5, 4:30 PM)
Low28 °F (Dec 6, 10:30 AM)75% (Dec 15, 8:00 PM)28.85 "Hg (Dec 13, 1:30 PM)
Average34 °F91%29.70 "Hg
* Reported Dec 5 4:00 PM — Dec 20 4:30 PM, Saint-Petersburg, Weather by CustomWeather, © 2014

Note: Actual official high and low records may vary slightly from our data, if they occured in-between our weather recording intervals... More about our weather records

Advertising

Saint-Petersburg weather history for previous 24 hours

 ConditionsComfort  
Time TempWeatherWind HumidityBarometerVisibility
4:30 PM
Dec 20
36 °FPartly sunny.13 mph87%29.12 "HgN/A
4:00 PM36 °FPartly sunny.13 mph87%29.12 "HgN/A
3:00 PM37 °FCloudy.13 mph81%29.09 "HgN/A
2:30 PM37 °FCloudy.13 mph87%29.09 "HgN/A
2:00 PM37 °FCloudy.15 mph81%29.09 "HgN/A
1:30 PM37 °FCloudy.15 mph87%29.09 "HgN/A
1:00 PM37 °FCloudy.13 mph87%29.09 "HgN/A
12:30 PM37 °FSprinkles. Cloudy.13 mph87%29.09 "HgN/A
12:00 PM36 °FSprinkles. Cloudy.15 mph93%29.09 "Hg5 mi
11:30 AM37 °FSprinkles. Cloudy.13 mph93%29.09 "HgN/A
11:00 AM36 °FSprinkles. Cloudy.10 mph93%29.09 "Hg4 mi
10:30 AM36 °FSprinkles. Overcast.13 mph93%29.09 "Hg4 mi
10:00 AM36 °FMostly cloudy.10 mph93%29.06 "HgN/A
9:30 AM36 °FSprinkles. Mostly cloudy.8 mph93%29.06 "HgN/A
9:00 AM37 °FMostly cloudy.13 mph87%29.06 "HgN/A
8:30 AM37 °FMostly cloudy.10 mph87%29.06 "HgN/A
8:00 AM37 °FPassing clouds.10 mph87%29.06 "HgN/A
7:30 AM37 °FPartly cloudy.6 mph87%29.06 "HgN/A
7:00 AM37 °FPassing clouds.6 mph87%29.06 "HgN/A
6:30 AM37 °FPassing clouds.6 mph87%29.06 "HgN/A
6:00 AM37 °FPassing clouds.6 mph87%29.09 "HgN/A
5:30 AM36 °FPassing clouds.6 mph93%29.09 "HgN/A
5:00 AM37 °FPassing clouds.6 mph87%29.06 "HgN/A
4:30 AM37 °FPassing clouds.6 mph87%29.09 "HgN/A
4:00 AM37 °FPassing clouds.6 mph87%29.09 "HgN/A
3:30 AM37 °FPartly cloudy.6 mph87%29.09 "HgN/A
3:00 AM37 °FPartly cloudy.6 mph93%29.09 "HgN/A
2:30 AM37 °FPartly cloudy.8 mph93%29.09 "HgN/A
2:00 AM37 °FPartly cloudy.8 mph93%29.09 "HgN/A
1:30 AM37 °FPartly cloudy.6 mph93%29.09 "HgN/A
1:00 AM37 °FPartly cloudy.6 mph87%29.09 "HgN/A
12:30 AM37 °FLight rain. Mostly cloudy.3 mph87%29.09 "HgN/A
12:00 AM37 °FPassing clouds.6 mph87%29.09 "HgN/A
11:30 PM
Dec 19
37 °FPassing clouds.6 mph93%29.09 "HgN/A
11:00 PM37 °FMostly cloudy.6 mph93%29.09 "HgN/A
10:30 PM37 °FMostly cloudy.6 mph93%29.09 "HgN/A
10:00 PM37 °FLight rain. Overcast.6 mph93%29.09 "HgN/A
9:30 PM36 °FLight rain. Mostly cloudy.6 mph93%29.09 "HgN/A
9:00 PM34 °FLight rain. Mostly cloudy.6 mph100%29.09 "HgN/A
8:30 PM34 °FMostly cloudy.8 mph100%29.09 "HgN/A
8:00 PM34 °FMostly cloudy.6 mph93%29.09 "HgN/A
7:30 PM34 °FLight snow. Mostly cloudy.8 mph93%29.09 "Hg4 mi
7:00 PM34 °FLight snow. Mostly cloudy.10 mph93%29.09 "HgN/A
6:30 PM34 °FMostly cloudy.10 mph93%29.12 "HgN/A
6:00 PM34 °FMostly cloudy.10 mph93%29.12 "HgN/A
5:30 PM34 °FMostly cloudy.8 mph93%29.12 "HgN/A
5:00 PM34 °FMostly cloudy.10 mph93%29.15 "HgN/A
Weather by CustomWeather, © 2014

See weather overviewHow to use our weather pages